DELTA 1 DEB, 7151

Orbit data source: Space-Track

DELTA 1 DEB, 7151 is space debris in SSO originally from a launch on Tue, 06 Nov 1973 UTC launched from the Air Force Western Test Range (AFWTR). Debris objects in space refer to the collection of defunct objects orbiting the Earth. Examples of debris include non-operational satellites, rocket bodies, and fragments generated from explosions, collisions, or faulty payload assembly.

Loading next visibility...
Identifier
7151, 1973-086DR
Orbit
SSO
Country
Flag of USUS
Related business
Manufacturer
Unknown
Mission
Spacecraft
Bus & Motor
Unknown
Mass
Unknown
Launch date (UTC)
1973-11-06 (53 years ago)
Launch vehicle
Unknown
Launch site
Air Force Western Test Range (AFWTR)
Object type
Payload
Rocket body
Debris
Shape & HBR
Unknown shape, 0.1 m
Radar Cross Section
Medium (>0.1 m² and <1 m²)

Expand to show TLE details & history
Last TLE update: 1 day ago

TLE from 1 day ago
0 DELTA 1 DEB
1 07151U 73086DR  26206.33582698 -.00000009  00000-0  35339-3 0  9994
2 07151 102.7714 337.3217 0154428  30.4172 355.7634 12.17911578339027
Epoch: 2026-07-25T08:03Z
TLE epoch observation values (Epoch: 2026-07-25T08:03:35.451Z)
Latitude
25.38788°
Longitude
-92.77047°
Altitude
1,481.45 km
Speed
7.18 km/s
True Right ascension
22h 04m 42s
True Declination
25° 16' 02"
Sunlit
Object was in full shadow at epoch
Visualization orbit readout
Latitude
Unknown
Longitude
Unknown
Altitude
Unknown
Speed
Unknown
Apparent Right ascension
Unknown
Apparent Declination
Unknown
Sunlit
N/A
Visualization observer readout
Local Sidereal Time
21:17:34
Azimuth
Unknown
Elevation
Unknown
Doppler factor
Unknown
Orbital elements
Apogee altitude
1,722.494 km
Perigee altitude
1,476.106 km
Semi-major axis
7,977.437 km
Eccentricity
0.01544
Inclination
102.7714°
RAAN
337.3217°
Arg. of periapsis
30.4172°
True anomaly
355.63011°
Mean anomaly
355.7634°
Eccentric anomaly
355.69701°
Mean motion
3.04613 °/min
Orbital period
118.18 mins
BSTAR
0.00035339
Loading maneuver chart data...
Computing Atmospheric mass density...
Loading historical data...
Loading historical data...
Loading historical data...
Loading historical data...
Loading historical data...
Loading historical data...
Loading historical data...

Documentation

Showing up to 5 results
|